sat.trackr.live / text

‹ back to catalog

STRAND-1

NORAD 39090 · 2013-009E

PAYLOAD ACTIVE UNKNOWN

§ Identity

Operator
Country
UK
Launch date
2013-02-25
Launch site
SRILR
Launch vehicle
Mass (kg)
RCS (m²)
0.06

Purposes: comms, tech_demo

External: N2YO · Heavens-Above · Gunter

§ Orbital elements

Epoch: 2026-09-19T22:46:20.326368Z

Period
100.19 min
Inclination
98.3970°
Eccentricity
0.0007750
Mean motion
14.37208561 rev/d
Perigee alt
762.2 km
Apogee alt
773.3 km
Semi-major
7,145.9 km
B*
7.0421e-5
RAAN
80.8876°
Arg perigee
313.4931°
Mean anomaly
46.5611°
Rev number
71,067

§ Raw data

STRAND-11 39090U 13009E   26262.94884637  .00000167  00000+0  70421-4 0  99922 39090  98.3970  80.8876 0007750 313.4931  46.5611 14.37208561710670

JSON: /api/v1/satellites/39090 · /tle

For live sub-satellite position, see the globe view (requires WebGL).

§ Visibility from observer

Set your observer location to see the next 7 days of passes ≥ 10°. The values pass through the URL so the page stays shareable.

No JS? Fill the form by hand. The geolocation button needs JavaScript.

§ Radio — SatNOGS DB

ModeDescriptionDownlinkUplink
FSK UHF 9k6 FSK TLM (inactive) 437.568 MHz

1 transmitter · refreshed weekly from db.satnogs.org